DW6471 Weather Reports


Display with metric or nautical units.
time (UTC)temp
F
wind
direction
speed
MPH
gust
MPH
rain 1hr
in
rain 24hr
in
rain mn
in
humidity
%
barometer
mb
20260831014408 78 84 0.0 0.0 0.00 0.63 0.63 93 1016.7
20260831014140 78 84 0.0 0.0 0.00 0.63 0.63 93 1016.6
20260831013409 78 84 0.0 0.0 0.00 0.63 0.63 93 1016.5
20260831012909 78 84 0.0 0.0 0.00 0.63 0.63 93 1016.5
20260831012409 78 84 0.0 0.0 0.00 0.63 0.63 93 1016.4
20260831011909 78 84 0.0 0.0 0.00 0.63 0.63 93 1016.3
20260831011408 78 84 0.0 0.0 0.00 0.63 0.63 93 1016.2
20260831010908 78 84 0.0 0.0 0.00 0.63 0.63 92 1016.1
20260831010409 78 84 0.0 0.0 0.00 0.63 0.63 92 1016.1
20260831005909 79 84 0.0 0.0 0.00 0.63 0.63 92 1016.0
20260831005406 79 84 0.0 0.0 0.00 0.63 0.63 92 1016.0
20260831004907 79 84 0.0 0.0 0.00 0.63 0.63 92 1016.0
20260831004638 79 84 0.0 0.0 0.00 0.63 0.63 92 1016.0
20260831003906 79 84 0.0 0.0 0.00 0.63 0.63 91 1016.0
20260831003407 80 84 0.0 0.0 0.00 0.63 0.63 91 1016.0
20260831003137 80 84 0.0 1.0 0.00 0.63 0.63 90 1016.0
20260831002407 80 84 0.0 2.0 0.00 0.63 0.63 90 1016.0
20260831001907 80 84 1.0 2.0 0.00 0.63 0.63 90 1016.1
20260831001406 80 84 1.0 2.0 0.00 0.63 0.63 90 1016.0
20260831000907 80 79 1.0 2.0 0.00 0.63 0.63 90 1016.0
20260831000406 80 79 0.0 2.0 0.00 0.63 0.63 91 1016.0
20260830235907 80 87 0.0 2.0 0.00 0.63 0.63 90 1016.0
20260830235409 81 84 0.0 0.0 0.00 0.63 0.63 89 1016.0
20260830235405 81 84 0.0 1.0 0.00 0.63 0.63 90 1016.0
20260830234636 81 84 0.0 1.0 0.00 0.63 0.63 89 1015.9
20260830233904 82 84 0.0 2.0 0.00 0.63 0.63 87 1015.9
20260830233404 81 84 0.0 2.0 0.00 0.63 0.63 87 1015.9
20260830232905 82 47 0.0 1.0 0.00 0.63 0.63 88 1015.9
20260830232405 82 47 0.0 1.0 0.00 0.63 0.63 88 1015.9
20260830231905 82 47 0.0 0.0 0.00 0.63 0.63 88 1016.0
20260830231405 82 47 0.0 0.0 0.00 0.63 0.63 88 1015.9
20260830230904 82 47 0.0 1.0 0.00 0.63 0.63 89 1015.9
20260830230404 81 47 0.0 1.0 0.00 0.63 0.63 90 1016.0
20260830225905 81 48 0.0 2.0 0.00 0.63 0.63 90 1016.0
20260830225404 80 48 0.0 2.0 0.00 0.63 0.63 90 1016.1
20260830224904 80 47 0.0 2.0 0.00 0.63 0.63 90 1016.1
20260830224635 80 47 0.0 2.0 0.00 0.63 0.63 90 1016.1
20260830223904 79 45 0.0 1.0 0.00 0.63 0.63 91 1016.1
20260830223404 79 45 0.0 1.0 0.00 0.63 0.63 91 1016.1
20260830223136 78 45 0.0 1.0 0.00 0.63 0.63 90 1016.3
20260830222404 78 45 0.0 1.0 0.04 0.63 0.63 90 1016.4
20260830221905 78 44 0.0 1.0 0.08 0.63 0.63 90 1016.5
20260830221404 78 46 0.0 1.0 0.22 0.63 0.63 90 1016.5
20260830220904 78 46 1.0 3.0 0.40 0.63 0.63 90 1016.4
20260830220405 78 46 1.0 4.0 0.45 0.63 0.63 90 1016.3
20260830220135 78 42 1.0 4.0 0.45 0.63 0.63 90 1016.3
20260830215405 78 66 2.0 3.0 0.45 0.63 0.63 90 1016.2
20260830214904 79 60 2.0 4.0 0.45 0.65 0.63 89 1016.2
20260830214405 79 353 2.0 6.0 0.45 0.70 0.63 89 1016.2
20260830213905 79 44 2.0 6.0 0.45 0.77 0.63 89 1016.4
20260830213404 79 32 2.0 6.0 0.45 0.88 0.63 89 1016.5
20260830212905 80 74 1.0 4.0 0.45 0.90 0.63 87 1016.5
20260830212404 81 322 1.0 3.0 0.41 0.87 0.60 84 1016.5
20260830211904 82 28 2.0 5.0 0.37 0.84 0.56 80 1016.5
20260830211405 85 291 3.0 9.0 0.23 0.70 0.42 75 1016.4
20260830210904 88 131 2.0 9.0 0.05 0.52 0.24 67 1016.3
20260830210405 90 144 1.0 5.0 0.00 0.47 0.18 66 1016.2
20260830205905 91 84 1.0 4.0 0.00 0.48 0.18 65 1016.2
20260830205405 90 190 1.0 4.0 0.00 0.48 0.18 65 1016.2
20260830204905 90 103 1.0 4.0 0.00 0.48 0.18 66 1016.2
20260830204404 89 219 2.0 4.0 0.00 0.48 0.18 66 1016.1
20260830203904 89 85 2.0 5.0 0.00 0.48 0.18 69 1016.3
20260830203403 89 89 2.0 5.0 0.00 0.48 0.18 67 1016.4
20260830202902 89 108 2.0 5.0 0.00 0.48 0.18 69 1016.4
20260830202403 89 72 2.0 5.0 0.00 0.48 0.18 68 1016.5
20260830201902 89 72 2.0 5.0 0.00 0.48 0.18 69 1016.5
20260830201403 89 79 2.0 5.0 0.00 0.48 0.18 69 1016.6
20260830200903 89 233 2.0 6.0 0.00 0.48 0.18 72 1016.6
20260830200633 89 79 2.0 6.0 0.00 0.48 0.18 73 1016.7
20260830195902 89 61 2.0 4.0 0.02 0.48 0.18 73 1016.6
20260830195403 89 79 1.0 4.0 0.04 0.48 0.18 74 1016.7
20260830194900 88 210 1.0 3.0 0.05 0.48 0.18 75 1016.8
20260830194359 87 126 1.0 3.0 0.08 0.48 0.18 77 1016.9
20260830193854 86 96 1.0 3.0 0.09 0.48 0.18 77 1016.9
20260830193354 85 115 1.0 3.0 0.09 0.48 0.18 81 1017.0
20260830192855 84 117 1.0 2.0 0.12 0.48 0.18 84 1017.0
20260830192625 82 91 1.0 3.0 0.15 0.48 0.18 87 1017.1
20260830192124 81 41 1.0 3.0 0.15 0.48 0.18 88 1017.2
20260830191350 80 87 1.0 3.0 0.15 0.48 0.18 90 1017.3
20260830190847 79 74 2.0 8.0 0.17 0.48 0.18 89 1017.4
20260830190346 80 63 4.0 9.0 0.17 0.48 0.18 89 1017.4
20260830190118 80 38 4.0 9.0 0.15 0.46 0.17 87 1017.6
20260830185346 81 60 3.0 8.0 0.13 0.44 0.14 85 1017.7
20260830184845 81 65 3.0 8.0 0.12 0.43 0.13 83 1017.8
20260830184342 82 49 3.0 8.0 0.09 0.40 0.11 83 1017.7
20260830183842 83 101 1.0 6.0 0.08 0.39 0.09 81 1017.7
20260830183343 83 79 1.0 4.0 0.08 0.39 0.09 84 1017.7
20260830182838 84 246 0.0 4.0 0.05 0.36 0.08 81 1017.8
20260830182339 85 211 0.0 1.0 0.02 0.33 0.03 81 1017.8
20260830182107 85 215 1.0 5.0 0.02 0.33 0.03 79 1017.9
20260830181606 85 215 1.0 5.0 0.02 0.33 0.03 76 1018.0
20260830180835 85 105 2.0 4.0 0.00 0.31 0.01 73 1018.2
20260830180334 86 111 2.0 5.0 0.00 0.31 0.01 70 1018.1
20260830175834 87 108 3.0 7.0 0.00 0.31 0.01 69 1018.2
20260830175605 87 115 2.0 7.0 0.00 0.31 0.01 70 1018.1
20260830174832 87 129 1.0 4.0 0.00 0.31 0.01 75 1018.1
20260830174333 87 211 1.0 3.0 0.00 0.31 0.01 78 1018.1
20260830173833 86 79 1.0 5.0 0.00 0.31 0.01 73 1018.1
20260830173332 87 91 2.0 5.0 0.00 0.31 0.01 74 1018.2
20260830172837 88 77 3.0 8.0 0.00 0.31 0.01 66 1018.2
20260830172833 88 93 2.0 5.0 0.00 0.31 0.01 66 1018.2
20260830171832 88 84 4.0 9.0 0.00 0.31 0.01 65 1018.3
20260830171333 88 98 4.0 9.0 0.00 0.31 0.01 65 1018.3
20260830170832 89 39 3.0 7.0 0.00 0.31 0.01 65 1018.4
20260830170332 89 81 2.0 7.0 0.00 0.31 0.01 65 1018.5
20260830165832 89 99 3.0 7.0 0.00 0.31 0.01 64 1018.5
20260830165332 89 336 3.0 7.0 0.00 0.31 0.01 66 1018.5
20260830164831 89 83 3.0 7.0 0.00 0.31 0.01 66 1018.5
20260830164330 89 49 3.0 9.0 0.00 0.31 0.01 65 1018.5
20260830163830 88 73 4.0 9.0 0.00 0.31 0.01 65 1018.6
20260830163330 88 81 4.0 7.0 0.00 0.31 0.01 64 1018.7
20260830162831 89 86 4.0 7.0 0.00 0.31 0.01 66 1018.7
20260830162335 89 58 3.0 8.0 0.00 0.31 0.01 65 1018.7
20260830161830 88 110 3.0 8.0 0.00 0.31 0.01 66 1018.7
20260830161331 88 73 3.0 8.0 0.00 0.31 0.01 66 1018.7
20260830160830 87 106 3.0 7.0 0.00 0.31 0.01 65 1018.7
20260830160330 87 98 4.0 9.0 0.00 0.31 0.01 67 1018.7
20260830155328 87 95 3.0 9.0 0.00 0.31 0.01 67 1018.8
20260830154827 87 149 3.0 11.0 0.00 0.31 0.01 69 1018.8
20260830154326 87 90 3.0 11.0 0.00 0.31 0.01 69 1018.7
20260830153827 87 93 4.0 8.0 0.00 0.31 0.01 69 1018.7
20260830153324 87 117 5.0 8.0 0.00 0.31 0.01 69 1018.7
20260830152824 87 81 4.0 8.0 0.00 0.31 0.01 70 1018.8
20260830152555 86 84 4.0 10.0 0.00 0.31 0.01 70 1018.8
20260830151823 85 105 5.0 10.0 0.00 0.31 0.01 72 1018.8
20260830151323 85 92 4.0 9.0 0.00 0.31 0.01 72 1018.6
20260830151054 85 67 4.0 9.0 0.00 0.31 0.01 73 1018.6
20260830150322 85 67 4.0 8.0 0.00 0.31 0.01 74 1018.5
20260830145822 85 69 4.0 8.0 0.00 0.31 0.01 74 1018.6
20260830145320 85 91 4.0 8.0 0.00 0.31 0.01 76 1018.7
20260830144820 84 83 5.0 9.0 0.00 0.31 0.01 76 1018.7
20260830144321 84 59 5.0 9.0 0.00 0.31 0.01 76 1018.7
20260830143820 83 81 5.0 9.0 0.00 0.31 0.01 77 1018.6
20260830143550 83 67 4.0 9.0 0.00 0.31 0.01 79 1018.6
20260830143049 83 64 4.0 8.0 0.00 0.31 0.01 79 1018.6
20260830142318 83 84 4.0 8.0 0.00 0.31 0.01 80 1018.7
20260830141816 82 63 4.0 8.0 0.00 0.31 0.01 80 1018.8
20260830141317 82 76 4.0 8.0 0.00 0.31 0.01 81 1018.9
20260830141048 82 57 3.0 8.0 0.00 0.31 0.01 81 1018.9
20260830140316 82 71 3.0 7.0 0.00 0.31 0.01 82 1018.7
20260830135815 81 56 4.0 7.0 0.00 0.31 0.01 83 1018.6
20260830135314 81 67 3.0 7.0 0.00 0.31 0.01 83 1018.6
20260830134814 81 43 4.0 8.0 0.00 0.31 0.01 83 1018.6
20260830134314 80 98 4.0 8.0 0.00 0.31 0.01 83 1018.5
20260830133814 80 73 4.0 8.0 0.00 0.31 0.01 84 1018.4
20260830133314 80 73 4.0 8.0 0.00 0.31 0.01 85 1018.3
20260830132814 80 70 4.0 8.0 0.00 0.31 0.01 84 1018.3
20260830132315 80 71 3.0 6.0 0.00 0.31 0.01 85 1018.4
20260830131814 79 68 3.0 6.0 0.00 0.31 0.01 86 1018.2
20260830131315 79 60 3.0 8.0 0.00 0.31 0.01 86 1018.1
20260830130814 79 87 2.0 8.0 0.00 0.31 0.01 86 1018.2
20260830130314 78 78 3.0 7.0 0.00 0.31 0.01 88 1018.2
20260830125814 78 70 3.0 7.0 0.00 0.31 0.01 88 1018.2
20260830125545 78 63 3.0 6.0 0.00 0.31 0.01 89 1018.2
20260830124814 78 92 3.0 6.0 0.00 0.31 0.01 89 1018.2
20260830124315 77 52 3.0 5.0 0.00 0.31 0.01 90 1018.2
20260830123814 77 61 2.0 5.0 0.00 0.31 0.01 91 1018.1
20260830123314 77 108 3.0 5.0 0.00 0.31 0.01 91 1018.1
20260830122814 76 49 2.0 5.0 0.00 0.31 0.01 91 1018.0
20260830122546 76 78 2.0 5.0 0.00 0.31 0.01 92 1018.0
20260830121814 76 63 2.0 5.0 0.00 0.31 0.01 93 1018.0
20260830121314 76 71 2.0 5.0 0.00 0.31 0.01 93 1017.9
20260830120812 76 58 2.0 5.0 0.00 0.31 0.01 93 1017.8
20260830120312 75 79 1.0 4.0 0.00 0.31 0.01 94 1017.9
20260830115812 75 70 2.0 5.0 0.00 0.31 0.01 94 1017.9
20260830115313 75 50 2.0 5.0 0.00 0.31 0.01 94 1017.7
20260830114812 74 83 2.0 5.0 0.00 0.31 0.01 95 1017.6
20260830114543 74 80 2.0 5.0 0.00 0.31 0.01 95 1017.5
20260830113812 74 85 2.0 3.0 0.00 0.31 0.01 95 1017.5
20260830113312 74 82 2.0 6.0 0.00 0.31 0.01 94 1017.3
20260830112813 74 103 2.0 6.0 0.00 0.31 0.01 94 1017.2
20260830112311 74 48 1.0 4.0 0.00 0.31 0.01 94 1017.2
20260830111810 74 60 2.0 4.0 0.00 0.31 0.01 94 1017.2
20260830111310 74 77 2.0 4.0 0.00 0.31 0.01 94 1017.1
20260830110808 74 63 2.0 4.0 0.00 0.31 0.01 94 1017.1
20260830110540 74 79 2.0 4.0 0.00 0.31 0.01 94 1017.1
20260830105808 74 86 2.0 3.0 0.00 0.31 0.01 94 1017.0
20260830105308 74 66 2.0 3.0 0.00 0.31 0.01 94 1016.9
20260830105039 74 76 1.0 3.0 0.00 0.31 0.01 94 1016.8
20260830104308 74 86 1.0 3.0 0.00 0.31 0.01 94 1016.8
20260830104039 74 58 1.0 3.0 0.00 0.31 0.01 94 1016.8
20260830103538 74 64 1.0 3.0 0.00 0.31 0.01 94 1016.9
20260830102806 74 49 1.0 5.0 0.00 0.31 0.01 94 1016.7
20260830102310 74 70 1.0 3.0 0.00 0.31 0.01 94 1016.7
20260830102307 74 47 1.0 5.0 0.00 0.31 0.01 94 1016.7
20260830101306 74 70 2.0 3.0 0.00 0.31 0.01 94 1016.6
20260830100807 74 46 1.0 4.0 0.00 0.31 0.01 94 1016.6
20260830100306 74 60 2.0 4.0 0.00 0.31 0.01 94 1016.6
20260830095806 75 89 2.0 3.0 0.00 0.31 0.01 94 1016.6
20260830095306 75 68 2.0 3.0 0.00 0.31 0.01 94 1016.6
20260830094806 75 72 1.0 3.0 0.00 0.31 0.01 94 1016.5
20260830094306 75 84 1.0 3.0 0.00 0.32 0.01 94 1016.6
20260830093804 75 69 1.0 2.0 0.01 0.32 0.01 94 1016.4
20260830093308 75 91 1.0 3.0 0.01 0.32 0.01 94 1016.4
20260830093304 75 70 1.0 2.0 0.01 0.32 0.01 94 1016.4
20260830092306 75 68 1.0 3.0 0.01 0.32 0.01 94 1016.3
20260830091804 75 81 1.0 3.0 0.01 0.32 0.01 94 1016.3
20260830091305 75 84 1.0 2.0 0.01 0.32 0.01 94 1016.3
20260830091035 75 84 1.0 2.0 0.01 0.32 0.01 94 1016.3
20260830090305 75 93 1.0 2.0 0.01 0.32 0.01 94 1016.2
20260830085805 75 79 1.0 3.0 0.01 0.32 0.01 94 1016.2
20260830085306 75 60 1.0 3.0 0.01 0.32 0.01 94 1016.4
20260830084802 75 86 1.0 2.0 0.01 0.32 0.01 94 1016.5
20260830084302 75 63 1.0 2.0 0.01 0.32 0.01 94 1016.5
20260830083802 75 60 1.0 2.0 0.00 0.31 0.00 94 1016.5
20260830083302 75 79 0.0 2.0 0.00 0.31 0.00 94 1016.5
20260830082802 75 79 0.0 1.0 0.00 0.31 0.00 94 1016.4
20260830082306 75 79 0.0 1.0 0.00 0.31 0.00 94 1016.4
20260830081802 75 79 0.0 2.0 0.00 0.31 0.00 94 1016.4
20260830081302 75 79 1.0 2.0 0.00 0.31 0.00 94 1016.5
20260830080802 75 87 0.0 3.0 0.00 0.31 0.00 94 1016.6
20260830080300 75 75 0.0 3.0 0.00 0.31 0.00 94 1016.5
20260830075800 75 90 0.0 1.0 0.00 0.31 0.00 94 1016.6
20260830075301 75 48 1.0 2.0 0.00 0.31 0.00 94 1016.7
20260830074800 75 47 1.0 2.0 0.00 0.31 0.00 94 1016.6
20260830074300 75 47 1.0 3.0 0.00 0.31 0.00 94 1016.6
20260830073800 75 72 1.0 3.0 0.00 0.31 0.00 94 1016.7
20260830073300 75 89 1.0 4.0 0.00 0.31 0.00 94 1016.7
20260830072800 75 102 1.0 4.0 0.00 0.31 0.00 94 1016.7
20260830072300 75 80 1.0 2.0 0.00 0.31 0.00 94 1016.8
20260830071800 75 85 1.0 3.0 0.00 0.31 0.00 94 1016.8
20260830071258 75 42 2.0 3.0 0.00 0.31 0.00 94 1016.8
20260830070759 75 74 2.0 5.0 0.00 0.31 0.00 94 1016.9
20260830070529 75 44 2.0 5.0 0.00 0.31 0.00 94 1017.1
20260830065758 75 88 1.0 3.0 0.00 0.31 0.00 94 1017.2
20260830065258 75 84 1.0 3.0 0.00 0.31 0.00 94 1017.2
20260830064758 75 83 2.0 6.0 0.00 0.31 0.00 94 1017.4
20260830064258 75 63 2.0 6.0 0.00 0.31 0.00 94 1017.5
20260830063758 75 37 2.0 4.0 0.00 0.31 0.00 94 1017.4
20260830063258 75 45 1.0 4.0 0.00 0.31 0.00 94 1017.4
20260830062758 75 65 1.0 4.0 0.00 0.31 0.00 94 1017.4
20260830062256 75 72 1.0 3.0 0.00 0.31 0.00 94 1017.5
20260830062027 76 75 1.0 3.0 0.00 0.31 0.00 94 1017.4
20260830061257 76 69 0.0 3.0 0.00 0.31 0.00 94 1017.4
20260830060756 76 79 0.0 0.0 0.00 0.31 0.00 94 1017.4
20260830060256 76 79 0.0 1.0 0.00 0.31 0.00 94 1017.3
20260830055757 76 79 0.0 2.0 0.00 0.31 0.00 94 1017.4
20260830055256 76 79 0.0 2.0 0.00 0.31 0.00 94 1017.5
20260830054756 76 85 0.0 2.0 0.00 0.31 0.00 94 1017.5
20260830054256 76 85 1.0 2.0 0.00 0.31 0.00 94 1017.5
20260830053756 76 85 1.0 2.0 0.00 0.31 0.00 94 1017.6
20260830053254 76 85 1.0 2.0 0.00 0.31 0.00 94 1017.6
20260830052754 76 77 1.0 3.0 0.00 0.31 0.00 94 1017.7
20260830052254 76 51 1.0 3.0 0.00 0.31 0.00 94 1017.8
20260830051754 76 92 1.0 3.0 0.00 0.31 0.00 94 1017.9
20260830051255 76 68 1.0 3.0 0.00 0.31 0.00 94 1017.9
20260830050754 76 78 1.0 3.0 0.00 0.31 0.00 94 1018.0
20260830050525 76 72 1.0 3.0 0.00 0.31 0.00 93 1018.0
20260830045753 76 65 1.0 3.0 0.00 0.31 0.31 94 1018.1
20260830045253 76 72 1.0 2.0 0.00 0.31 0.31 94 1018.1
20260830044753 76 72 1.0 3.0 0.00 0.31 0.31 94 1018.1
20260830044253 76 53 1.0 3.0 0.00 0.31 0.31 94 1018.1
20260830043753 76 94 0.0 1.0 0.00 0.31 0.31 93 1018.1
20260830043253 76 75 0.0 0.0 0.00 0.31 0.31 93 1018.2
20260830043023 76 57 0.0 1.0 0.00 0.31 0.31 93 1018.3
20260830042252 76 73 0.0 2.0 0.00 0.31 0.31 93 1018.3
20260830041757 76 60 0.0 1.0 0.00 0.31 0.31 93 1018.1
20260830041753 76 64 0.0 2.0 0.00 0.31 0.31 93 1018.2
20260830040753 77 59 0.0 1.0 0.00 0.31 0.31 93 1018.1
20260830040253 77 59 0.0 1.0 0.00 0.31 0.31 93 1018.1
20260830035752 77 87 0.0 1.0 0.00 0.31 0.31 93 1018.1
20260830035252 77 87 0.0 1.0 0.00 0.31 0.31 93 1018.1
20260830034753 77 92 0.0 1.0 0.00 0.31 0.31 93 1018.1
20260830034250 77 90 0.0 1.0 0.00 0.31 0.31 93 1018.0
20260830033751 77 74 0.0 1.0 0.00 0.31 0.31 93 1018.0
20260830033250 77 78 0.0 1.0 0.00 0.31 0.31 93 1018.0
20260830032751 77 78 0.0 1.0 0.00 0.31 0.31 93 1018.0
20260830032255 77 72 0.0 1.0 0.00 0.31 0.31 92 1018.0
20260830032021 77 72 0.0 1.0 0.00 0.31 0.31 92 1018.0
20260830031250 77 79 0.0 1.0 0.00 0.31 0.31 92 1017.9
20260830030751 77 81 0.0 1.0 0.00 0.31 0.31 93 1017.9
20260830030250 77 73 0.0 1.0 0.00 0.31 0.31 93 1017.9
20260830025749 77 73 0.0 1.0 0.00 0.31 0.31 92 1018.0
20260830025244 77 73 0.0 1.0 0.00 0.31 0.31 93 1018.0
20260830025014 77 60 0.0 1.0 0.00 0.31 0.31 93 1017.9
20260830024513 77 70 0.0 2.0 0.00 0.31 0.31 93 1017.9
20260830023742 77 70 1.0 2.0 0.00 0.31 0.31 93 1017.8
20260830023242 77 70 1.0 2.0 0.00 0.31 0.31 93 1017.7
20260830022741 77 82 1.0 2.0 0.00 0.31 0.31 93 1017.7
20260830022238 77 82 1.0 2.0 0.00 0.31 0.31 93 1017.6
20260830021738 77 84 0.0 2.0 0.00 0.31 0.31 93 1017.6
20260830021235 77 84 0.0 2.0 0.00 0.31 0.31 93 1017.5
20260830020734 77 96 0.0 1.0 0.00 0.31 0.31 93 1017.5
20260830020502 77 96 0.0 1.0 0.00 0.31 0.31 93 1017.3
20260830015730 77 96 0.0 1.0 0.00 0.31 0.31 92 1017.2
20260830015502 77 96 0.0 2.0 0.00 0.31 0.31 92 1017.1